www.pogodaiklimat.ru
ПОГОДА в Сьерра-Висте
Время
и дата
01:58 08.08
02:58 08.08
03:58 08.08
04:58 08.08
05:58 08.08
06:48 08.08
06:58 08.08
07:58 08.08
08:58 08.08
09:58 08.08
10:58 08.08
11:53 08.08
11:58 08.08
12:52 08.08
12:58 08.08
13:37 08.08
13:58 08.08
14:58 08.08
15:21 08.08
15:47 08.08
15:58 08.08
16:26 08.08
16:58 08.08
17:15 08.08
17:58 08.08
18:28 08.08
18:34 08.08
18:58 08.08
19:25 08.08
19:49 08.08
19:58 08.08
20:58 08.08
22:24 08.08
22:58 08.08
23:58 08.08
00:58 09.08
01:58 09.08
02:58 09.08
03:58 09.08
05:58 09.08
06:58 09.08
07:58 09.08
08:58 09.08
09:58 09.08
10:58 09.08
11:29 09.08
11:44 09.08
11:58 09.08
Ветер
(напр.,м/с)
Видим. Явления Облачность Т
(С)
Тd
(С)
f
(%)
Тe
(С)
Тes
(С)
Комфортность P
(гПа)
Po
(гПа)
Тmin
(С)
Tmax
(С)
R
(мм)
R24
(мм)
S
(см)
ЮЗ 1 16 км 8/0 3300 м
[Ac]
+19.3 +16.4 83 +21 +21 комфорт 1015.9 860.3 0.3
СЗ 1 16 км 8/0 2400 м
[Ac]
+18.6 +16.7 89 +20 +20 1015.5 860.1
З 1 16 км ясно +18.6 +16.0 85 +20 +20 1015.2 859.8
штиль 0 16 км 2/0 3900 м
[Ac]
+19.5 +14.5 73 +21 +21 комфорт 1015.2 859.8 +18.3 +21.6 0.3 20.8
Ю 2 16 км 10/0 4800 м
[Ac]
+18.2 +15.4 84 +18 +18 1015.7 860.1
штиль 0 16 км 10/0 3300 м
[Ac]
+19.0 +16.0 83 +20 +20 1017.7 860.6
ЮВ 1 16 км 10/0 3300 м
[Ac]
+19.7 +16.2 80 +23 +23 комфорт 1017.4 860.6
штиль 0 16 км 8/0 2400 м
[Ac]
+21.3 +15.7 70 +25 +26 комфорт 1017.3 860.9
штиль 0 16 км 8/0 5400 м
[Ac Ci]
+22.9 +16.0 65 +27 +30 душно 1017.5 860.9
СВ 1 16 км ясно +25.2 +15.5 55 +28 +38 жарко 1016.7 860.6
С 1 16 км ясно +26.6 +15.0 49 +29 +44 жарко 1016.4 860.6 +17.9 +26.7
штиль 0 16 км ясно +28.0 +14.0 42 +30 +55 опасность
солнечного
удара
1015.7 860.1
Ю 1 16 км ясно +27.7 +13.9 43 +30 +48 жарко 1015.7 860.1
штиль 0 0 м ливневые осадки 5/2 1650 м
[Ac]
+29.0 +13.0 37 +30 +48 жарко 1014.6 859.5
В 1 0 м ливневые осадки 5/2 1800 м
[Ac]
+29.0 +13.1 38 +31 +44 жарко 1014.6 859.5
СВ 1 0 м гроза 8/0 2100 м
[Ac]
+29.0 +13.0 37 +30 +38 жарко 858.9
СВ 2 0 м гроза 8/0 2100 м
[Ac]
+29.0 +13.0 37 +30 +36 жарко 858.9
З 2 16 км 8/0 2100 м
[Ac]
+28.0 +15.0 45 +31 +36 душно 1013.6 858.3
ЮЗ 3 0 м ливневые осадки 8/0 2100 м
[Ac]
+29.0 +14.0 40 +31 +33 жарко 857.8
СЗ 3 16 км гроза 8/0 2100 м
[Ac]
+29.0 +14.0 40 +31 +33 жарко 857.8
СЗ 3 16 км гроза 8/0 2100 м
[Ac]
+28.0 +15.0 45 +31 +33 душно 1012.9 857.8
СЗ 2 0 м гроза 8/0 2100 м
[Ac]
+28.0 +14.0 42 +30 +32 жарко 857.8
З 2 16 км 8/0 2100 м
[Ac]
+28.0 +15.0 45 +31 +33 душно 1012.9 857.8
З 2 0 м гроза 8/0 2100 м
[Ac]
+28.0 +15.0 45 +31 +32 душно 857.5
З 2 0 м гроза 8/5 1800 м
[Ci]
+28.0 +15.0 45 +31 +32 душно 1013.2 857.8
З 1 16 км гроза 8/5 1350 м
[Ac]
+28.0 +15.0 45 +31 +31 душно 858.3
Ю 1 16 км гроза со слабым дождем 8/5 1350 м
[Ac]
+26.0 +16.0 54 +29 +30 душно 858.3
З 2
{5}
11 км гроза со слабым дождем 8/5 1350 м
[Ac]
+26.0 +16.0 54 +29 +29 душно 1014.6 858.9
Ю 2 16 км слабый дождь 8/2 1350 м
[Ac]
+23.0 +16.0 65 +27 +27 душно 858.9
Ю 2 16 км 8/2 1350 м
[Ac]
+22.0 +18.0 78 +27 +27 душно 859.2
Ю 2 16 км 8/2 1350 м
[Ac]
+23.0 +17.0 69 +28 +28 душно 1015.2 859.5 4.1
Ю 2 16 км 10/0 2400 м
[Ac]
+23.0 +17.0 69 +28 +28 душно 1015.2 859.5
В 1 16 км 8/0 3900 м
[Ac]
+21.0 +18.0 83 +26 +26 душно 1014.2 860.1
штиль 0 16 км 8/0 3900 м
[Ac]
+20.0 +17.0 83 +24 +24 комфорт 1014.2 860.3
С 1 16 км 8/0 3900 м
[Ac]
+20.0 +17.0 83 +23 +23 комфорт 1014.2 860.6
ЮВ 1 16 км 8/0 4500 м
[Ac Ci]
+20.0 +16.0 78 +23 +23 комфорт 1014.2 860.3
В 1 16 км 8/0 4500 м
[Ac Ci]
+19.0 +17.0 88 +21 +21 комфорт 1013.9 860.1
В 1 16 км 8/0 4500 м
[Ac Ci]
1013.9 859.8
В 1 16 км 8/0 4500 м
[Ac Ci]
+19.0 +17.0 88 +21 +21 комфорт 1013.7 859.5
штиль 0 16 км 10/0 3300 м
[Ac Ci]
+19.0 +17.0 88 +20 +20 860.1
штиль 0 16 км 8/0 3300 м
[Ac Ci]
+21.0 +16.0 73 +24 +24 комфорт 860.3
СВ 1 16 км 5/0 9000 м
[Ci]
+22.0 +17.0 73 +26 +28 душно 860.3
СВ 1 16 км 5/2 1650 м
[Ci]
+23.0 +17.0 69 +28 +31 душно 860.3
штиль 0 16 км 8/2 1500 м
[Ac Ci]
+25.0 +17.0 61 +29 +35 душно 860.3
СВ 1 0 м ливневые осадки 8/2 1440 м
[Ac]
+28.0 +17.0 51 +32 +39 душно 860.3 TNS
нст 1 16 км гроза, ливневые осадки 8/5 1440 м
[Ac]
+27.0 +16.0 51 +30 +37 душно 860.1 NRY
штиль 0 0 м гроза 8/5 1440 м
[Ac]
+28.0 +17.0 51 +32 +40 душно 860.1 NRY
Ю 1 0 м гроза 5/5 1500 м +28.0 +17.0 51 NRY
Местоположение метеостанции Sierra Vista Municipal Airport: широта 31.5833 долгота -110.3333 высота над уровнем моря 1438 м.
В архиве по умолчанию представлена погода в Сьерра-Висте за последние 1-2 суток. Обновление информации о фактической погоде в базе происходит ежечасно! Архивные данные за месяц целиком и за предыдущие месяцы Вы можете получить, выбрав интересующий диапазон дат из раскрывающегося списка и нажав кнопку "Ввод!".
Внимание! Архив погоды МЕТАР в базе сайта по станциям, не включенным в климатический монитор, хранится не более 60 дней. Нет смысла пытаться выбрать более раннюю дату.
*Определитесь, кто Вы:
Внимание! Время в таблицах - местное (без учета летнего времени). Для получения всемирного времени необходимо вычесть поправку, которая равна -7 ч.
Смотрите также архив погоды в соседних городах и на ближайших метеорологических станциях:
Партнеры нашего сайта:      
Пояснения к столбцам:
  • Ветер - указаны скорость ветра в м/с - средняя за 10 мин, порывы в срок и между сроками (в фигурных скобках) и направление, откуда дует ветер: С - северный,
  • СВ - северо-восточный, В - восточный, ЮВ - юго-восточный, Ю - южный, ЮЗ - юго-западный, З - западный, СЗ - северо-западный.
  • Видимость - горизонтальная дальность видимости в метрах или километрах. При видимости от 1 до 10 км при отсутствии осадков обычно наблюдается дымка, при ухудшении видимости до 1 км и менее - туман. В сухую погоду видимость может ухудшаться дымом, пылью или мглою.
  • Явления - указаны атмосферные явления, наблюдавшиеся в срок или в последний час перед сроком; фигурными скобками обозначены явления, наблюдавшиеся между сроками (за 1-3 часа до срока); квадратными скобками обозначены град или гололедные отложения с указанием их диаметра в мм.
  • Облачность - указаны через наклонную черту общая и нижняя облачность в баллах и высота нижней границы облаков в метрах; квадратными скобками обозначены формы облаков: Ci - перистые, Cs - перисто-слоистые, Cc - перисто-кучевые, Ac - высококучевые, As - высокослоистые, Sc - слоисто-кучевые, Ns - слоисто-дождевые, Cu - кучевые, Cb - кучево-дождевые. Подробнее классификацию облаков см. в Атласе облаков (PDF).
  • T - Температура воздуха - температура, измеренная на высоте 2 м над землей.
  • Td - Температура точки росы - температура, при понижении до которой содержащийся в воздухе водяной пар достигнет насыщения.
  • f - Относительная влажность воздуха - влажноcть воздуха, измеренная на высоте 2 м над землей.
  • Te - Эффективная температура - температура, которую ощущает одетый по сезону человек в тени. Характеристика душности погоды. При расчете учитывается влияние влажности воздуха и скорости ветра на теплоощущения человека.
  • Tes - Эффективная температура на солнце - температура, которую ощущает человек, с поправкой на солнечный нагрев. Характеристика знойности погоды. Зависит от высоты солнца над горизонтом, облачности и скорости ветра. Ночью, в пасмурную погоду, а также при ветре 12 м/с и более поправка равна нулю.
  • P - Атмосферное давление - приведенное к уровню моря атмосферное давление.
  • Po - Атмосферное давление - измеренное на уровне метеостанции атмосферное давление.
  • Tmin - Минимальная температура - минимум температуры воздуха на высоте 2 м над землей.
  • Tmax - Максимальная температура - максимум температуры воздуха на высоте 2 м над землей.
  • R - Количество осадков - Количество выпавших осадков за период времени, мм. При наведении курсора мыши на число - период времени, за который выпало указанное количество осадков.
  • R24 - Количество осадков - Количество выпавших осадков за 24 часа, мм.
  • S - Снежный покров - Высота снежного покрова, см. При наведении курсора мыши на число - состояние снежного покрова и степень покрытия местности в баллах.